Williamsport, PA

5:51 AM EDT on September 25, 2017 (GMT -0400)
Williamsport Rgnl

Weather History for KIPT - June, 2013

Change the Weather History Date:

Thursday, June 13, 2013

  Actual Average Record
Temperature  
Mean Temperature 67 °F 68 °F  
Max Temperature 75 °F 79 °F 98 °F (1956)
Min Temperature 59 °F 57 °F 42 °F (1979)
Degree Days  
Heating Degree Days 0 1  
Month to date heating degree days 9 27  
Since 1 June heating degree days 9 27  
Since 1 July heating degree days 5669 5985  
Cooling Degree Days 2 5  
Month to date cooling degree days 41 46  
Year to date cooling degree days 112 89  
Since 1 June cooling degree days 41 46  
Growing Degree Days 18 (Base 50)    
Moisture  
Dew Point 60 °F    
Average Humidity 76    
Maximum Humidity 84    
Minimum Humidity 68    
Precipitation  
Precipitation 1.32 in 0.13 in 1.39 in (1967)
Month to date precipitation 2.86 1.67  
Year to date precipitation 15.43 16.58  
Sea Level Pressure  
Sea Level Pressure 29.58 in    
Wind  
Wind Speed 10 mph (WNW)    
Max Wind Speed 22 mph    
Max Gust Speed 30 mph    
Visibility 8 miles    
Events Rain , Thunderstorm    
T = Trace of Precipitation, MM = Missing Value Source: NWS Daily Summary

Daily Weather History Graph

Daily Weather History Graph

Search for Another Location

Airport or City:

Trip Planner

Search our weather history database for the weather conditions in past years. The results will help you decide how hot, cold, wet, or windy it might be!

Date:

Astronomy

Jun. 13, 2013 Rise Set
Actual Time 5:34 AM EDT 8:41 PM EDT
Civil Twilight 5:00 AM EDT 9:15 PM EDT
Nautical Twilight 4:17 AM EDT 9:58 PM EDT
Astronomical Twilight 3:26 AM EDT 10:49 PM EDT
Moon 10:11 AM EDT (6/13) 11:44 PM EDT (6/13)
Length of Visible Light 16h 14m
Length of Day
15h 07m
Waxing Crescent, 21% of the Moon is Illuminated
Jun 13
Waxing Crescent
Jun 16
First Quarter
Jun 23
Full
Jun 30
Last Quarter
Jul 8
New

Hourly Weather History & Observations

Time (EDT) Temp. Dew Point Humidity Pressure Visibility Wind Dir Wind Speed Gust Speed Precip Events Conditions
12:54 AM 66.0 °F 57.0 °F 73% 29.77 in 10.0 mi North - - N/A   Clear
1:54 AM 66.9 °F 55.9 °F 68% 29.75 in 10.0 mi North - - N/A   Scattered Clouds
2:54 AM 64.0 °F 60.1 °F 87% 29.74 in 10.0 mi North - - 0.05 in Rain Light Rain
3:54 AM 64.0 °F 59.0 °F 84% 29.72 in 10.0 mi North - - 0.00 in   Overcast
4:43 AM 64.4 °F 57.2 °F 77% 29.73 in 10.0 mi North - - 0.00 in Thunderstorm Thunderstorm
4:52 AM 62.6 °F 59.0 °F 88% 29.71 in 1.8 mi North - - 0.14 in Rain , Thunderstorm Heavy Thunderstorms and Rain
4:54 AM 62.1 °F 59.0 °F 90% 29.69 in 1.5 mi North - - 0.19 in Rain , Thunderstorm Heavy Thunderstorms and Rain
5:01 AM 62.6 °F 59.0 °F 88% 29.70 in 2.5 mi North - - 0.06 in Rain , Thunderstorm Heavy Thunderstorms and Rain
5:08 AM 62.6 °F 59.0 °F 88% 29.70 in 3.0 mi North - - 0.10 in Rain , Thunderstorm Heavy Thunderstorms and Rain
5:27 AM 62.6 °F 59.0 °F 88% 29.69 in 10.0 mi North - - 0.13 in Thunderstorm Overcast
5:54 AM 63.0 °F 59.0 °F 87% 29.67 in 10.0 mi North - - 0.14 in Thunderstorm Thunderstorm
6:17 AM 62.6 °F 60.8 °F 94% 29.67 in 10.0 mi North - - N/A   Overcast
6:54 AM 63.0 °F 59.0 °F 87% 29.63 in 8.0 mi North - - 0.03 in Rain Rain
7:01 AM 62.6 °F 59.0 °F 88% 29.66 in 9.0 mi North - - 0.01 in Rain , Thunderstorm Rain
7:27 AM - - N/A% 29.66 in 4.0 mi East 6.9 mph - 0.00 in Rain , Thunderstorm Thunderstorms and Rain
7:39 AM 60.8 °F 60.8 °F 100% 29.66 in 1.0 mi East 5.8 mph - 0.34 in Rain Heavy Rain
7:54 AM 61.0 °F 60.1 °F 97% 29.63 in 1.2 mi ENE 10.4 mph - 0.66 in Rain Heavy Rain
8:00 AM 60.8 °F 59.0 °F 94% 29.62 in 2.0 mi ENE 10.4 mph - 0.04 in Rain Heavy Rain
8:05 AM 62.6 °F 59.0 °F 88% 29.62 in 3.0 mi ENE 11.5 mph - 0.05 in Rain Rain
8:54 AM 62.1 °F 60.1 °F 93% 29.55 in 10.0 mi ENE 12.7 mph - 0.06 in   Overcast
9:02 AM 62.6 °F 60.8 °F 94% 29.56 in 10.0 mi East 11.5 mph - N/A   Overcast
9:47 AM 66.2 °F 60.8 °F 83% 29.55 in 10.0 mi Variable 4.6 mph 18.4 mph N/A   Overcast
9:54 AM 66.0 °F 61.0 °F 84% 29.54 in 10.0 mi SSE 9.2 mph 17.3 mph N/A   Overcast
10:13 AM 66.2 °F 60.8 °F 83% 29.54 in 7.0 mi SSE 18.4 mph 24.2 mph N/A   Overcast
10:54 AM 68.0 °F 62.1 °F 81% 29.51 in 7.0 mi South 15.0 mph 21.9 mph N/A   Overcast
11:54 AM 69.1 °F 63.0 °F 81% 29.48 in 10.0 mi SSE 13.8 mph 24.2 mph 0.00 in   Overcast
12:14 PM 69.8 °F 62.6 °F 78% 29.47 in 10.0 mi SSE 15.0 mph 25.3 mph N/A   Overcast
12:54 PM 70.0 °F 64.0 °F 81% 29.44 in 10.0 mi SSE 6.9 mph - 0.02 in   Overcast
1:54 PM 71.1 °F 64.0 °F 78% 29.43 in 10.0 mi WSW 15.0 mph 21.9 mph 0.02 in   Overcast
2:29 PM 73.4 °F 64.4 °F 73% 29.44 in 10.0 mi WSW 10.4 mph - N/A   Overcast
2:51 PM 73.4 °F 64.4 °F 73% 29.43 in 10.0 mi West 10.4 mph 21.9 mph N/A   Overcast
2:54 PM 73.9 °F 64.0 °F 71% 29.42 in 10.0 mi West 11.5 mph 21.9 mph N/A   Overcast
3:54 PM 72.0 °F 63.0 °F 73% 29.42 in 10.0 mi WSW 12.7 mph 19.6 mph N/A   Overcast
4:04 PM 71.6 °F 62.6 °F 73% 29.43 in 10.0 mi West 12.7 mph - N/A   Overcast
4:54 PM 72.0 °F 62.1 °F 71% 29.42 in 10.0 mi West 17.3 mph 26.5 mph N/A   Overcast
5:38 PM 66.2 °F 62.6 °F 88% 29.43 in 4.0 mi West 12.7 mph 21.9 mph 0.00 in Rain Light Rain
5:54 PM 66.9 °F 63.0 °F 87% 29.44 in 6.0 mi West 12.7 mph - 0.01 in Rain Rain
6:00 PM 66.2 °F 62.6 °F 88% 29.45 in 4.0 mi NNW 9.2 mph - 0.01 in Rain Rain
6:24 PM 66.2 °F 62.6 °F 88% 29.45 in 10.0 mi West 10.4 mph 23.0 mph 0.03 in Rain Light Rain
6:54 PM 66.0 °F 61.0 °F 84% 29.48 in 5.0 mi North 10.4 mph - 0.06 in Rain Light Rain
7:54 PM 63.0 °F 57.9 °F 84% 29.53 in 6.0 mi NNW 4.6 mph - 0.03 in Rain Light Rain
8:04 PM 62.6 °F 57.2 °F 82% 29.54 in 6.0 mi NW 10.4 mph - 0.00 in Rain Light Rain
8:47 PM 60.8 °F 55.4 °F 82% 29.57 in 10.0 mi NW 9.2 mph - 0.01 in Rain Light Rain
8:54 PM 61.0 °F 55.9 °F 83% 29.57 in 10.0 mi NW 8.1 mph - 0.01 in Rain Light Rain
9:54 PM 61.0 °F 55.0 °F 81% 29.62 in 10.0 mi NNW 4.6 mph - 0.00 in   Overcast
10:08 PM 60.8 °F 53.6 °F 77% 29.62 in 10.0 mi NNW 8.1 mph - N/A   Overcast
10:54 PM 60.1 °F 54.0 °F 80% 29.63 in 10.0 mi NNW 9.2 mph - N/A   Overcast
11:54 PM 59.0 °F 53.1 °F 81% 29.65 in 10.0 mi NNW 5.8 mph - N/A   Overcast